TimePDT,TemperatureF,Dew PointF,Humidity,Sea Level PressureIn,VisibilityMPH,Wind Direction,Wind SpeedMPH,Gust SpeedMPH,PrecipitationIn,Events,Conditions,WindDirDegrees,DateUTC
12:15 AM,62.6,50.0,63,30.06,10.0,West,3.5,-,N/A,,Clear,260,2013-06-06 07:15:00
12:35 AM,62.6,50.0,63,30.06,10.0,West,8.1,-,N/A,,Clear,280,2013-06-06 07:35:00
12:55 AM,62.6,50.0,63,30.05,10.0,West,6.9,-,N/A,,Clear,260,2013-06-06 07:55:00
1:15 AM,62.6,50.0,63,30.05,10.0,West,5.8,-,N/A,,Clear,270,2013-06-06 08:15:00
1:35 AM,62.6,50.0,63,30.04,10.0,West,5.8,-,N/A,,Clear,260,2013-06-06 08:35:00
1:55 AM,59.0,48.2,67,30.04,10.0,West,5.8,-,N/A,,Clear,270,2013-06-06 08:55:00
2:15 AM,60.8,48.2,63,30.03,10.0,West,4.6,-,N/A,,Clear,280,2013-06-06 09:15:00
2:35 AM,60.8,48.2,63,30.03,10.0,West,6.9,-,N/A,,Clear,270,2013-06-06 09:35:00
2:55 AM,60.8,48.2,63,30.03,10.0,West,4.6,-,N/A,,Clear,260,2013-06-06 09:55:00
3:15 AM,60.8,48.2,63,30.03,10.0,West,3.5,-,N/A,,Clear,270,2013-06-06 10:15:00
3:35 AM,59.0,48.2,67,30.03,10.0,West,4.6,-,N/A,,Clear,280,2013-06-06 10:35:00
3:55 AM,59.0,48.2,67,30.03,10.0,West,4.6,-,N/A,,Clear,270,2013-06-06 10:55:00
4:15 AM,-9999,-9999,N/A,-9999,-9999.0,North,-9999.0,-,N/A,,Unknown,0,2013-06-06 11:15:00
4:35 AM,-9999,-9999,N/A,30.02,-9999.0,West,4.6,-,N/A,,Unknown,270,2013-06-06 11:35:00
4:55 AM,59.0,48.2,67,30.02,10.0,West,5.8,-,N/A,,Clear,270,2013-06-06 11:55:00
5:15 AM,59.0,48.2,67,30.02,10.0,WNW,4.6,-,N/A,,Clear,290,2013-06-06 12:15:00
5:35 AM,57.2,48.2,72,30.03,9.0,Calm,Calm,-,N/A,,Clear,0,2013-06-06 12:35:00
5:55 AM,57.2,48.2,72,30.03,9.0,Calm,Calm,-,N/A,,Clear,0,2013-06-06 12:55:00
6:15 AM,-9999,-9999,N/A,-9999,-9999.0,North,-9999.0,-,N/A,,Unknown,0,2013-06-06 13:15:00
6:35 AM,60.8,50.0,68,30.03,9.0,Calm,Calm,-,N/A,,Unknown,0,2013-06-06 13:35:00
6:55 AM,64.4,50.0,59,30.03,8.0,WSW,3.5,-,N/A,,Clear,250,2013-06-06 13:55:00
7:15 AM,66.2,50.0,56,30.03,9.0,NW,5.8,-,N/A,,Clear,310,2013-06-06 14:15:00
7:35 AM,68.0,50.0,52,30.03,9.0,WNW,8.1,-,N/A,,Clear,300,2013-06-06 14:35:00
7:55 AM,69.8,50.0,49,30.03,9.0,West,6.9,-,N/A,,Clear,280,2013-06-06 14:55:00
8:15 AM,71.6,50.0,46,30.04,10.0,WNW,11.5,-,N/A,,Clear,300,2013-06-06 15:15:00
8:35 AM,73.4,50.0,44,30.04,10.0,NW,9.2,-,N/A,,Clear,310,2013-06-06 15:35:00
8:55 AM,73.4,50.0,44,30.04,10.0,NW,10.4,-,N/A,,Clear,310,2013-06-06 15:55:00
9:15 AM,75.2,50.0,41,30.04,9.0,NW,12.7,-,N/A,,Clear,320,2013-06-06 16:15:00
9:35 AM,75.2,50.0,41,30.03,9.0,NW,10.4,-,N/A,,Clear,320,2013-06-06 16:35:00
9:55 AM,77.0,50.0,39,30.03,10.0,NW,11.5,-,N/A,,Clear,320,2013-06-06 16:55:00
10:15 AM,77.0,50.0,39,30.03,10.0,NW,10.4,16.1,N/A,,Clear,320,2013-06-06 17:15:00
10:35 AM,80.6,50.0,34,30.03,10.0,NW,9.2,-,N/A,,Clear,310,2013-06-06 17:35:00
10:55 AM,80.6,50.0,34,30.03,9.0,NW,10.4,-,N/A,,Clear,310,2013-06-06 17:55:00
11:15 AM,82.4,50.0,32,30.03,10.0,NW,13.8,-,N/A,,Clear,320,2013-06-06 18:15:00
11:35 AM,82.4,50.0,32,30.03,10.0,NW,12.7,-,N/A,,Clear,310,2013-06-06 18:35:00
11:55 AM,84.2,50.0,30,30.03,10.0,NW,15.0,19.6,N/A,,Clear,310,2013-06-06 18:55:00
12:15 PM,84.2,50.0,30,30.03,9.0,NW,15.0,-,N/A,,Clear,320,2013-06-06 19:15:00
12:35 PM,84.2,50.0,30,30.02,10.0,NW,15.0,-,N/A,,Clear,320,2013-06-06 19:35:00
12:55 PM,84.2,50.0,30,30.02,10.0,NW,15.0,20.7,N/A,,Clear,310,2013-06-06 19:55:00
1:15 PM,84.2,50.0,30,30.02,10.0,NW,17.3,-,N/A,,Clear,310,2013-06-06 20:15:00
1:35 PM,84.2,50.0,30,30.01,10.0,NW,17.3,-,N/A,,Clear,310,2013-06-06 20:35:00
1:55 PM,84.2,51.8,33,30.01,10.0,NW,17.3,-,N/A,,Clear,310,2013-06-06 20:55:00
2:15 PM,84.2,51.8,33,30.01,10.0,NW,15.0,23.0,N/A,,Clear,310,2013-06-06 21:15:00
2:35 PM,84.2,51.8,33,30.00,10.0,NW,16.1,-,N/A,,Clear,310,2013-06-06 21:35:00
2:55 PM,84.2,51.8,33,30.00,10.0,NW,18.4,21.9,N/A,,Clear,310,2013-06-06 21:55:00
3:15 PM,84.2,51.8,33,30.00,10.0,NW,17.3,23.0,N/A,,Clear,320,2013-06-06 22:15:00
3:35 PM,84.2,53.6,35,30.00,10.0,NW,17.3,23.0,N/A,,Clear,310,2013-06-06 22:35:00
3:55 PM,84.2,53.6,35,30.00,10.0,NW,15.0,20.7,N/A,,Clear,310,2013-06-06 22:55:00
4:15 PM,82.4,53.6,37,29.99,10.0,NW,15.0,-,N/A,,Clear,320,2013-06-06 23:15:00
4:35 PM,82.4,51.8,35,29.99,10.0,NW,15.0,20.7,N/A,,Clear,310,2013-06-06 23:35:00
4:55 PM,82.4,51.8,35,29.99,10.0,NW,15.0,20.7,N/A,,Clear,310,2013-06-06 23:55:00
5:15 PM,82.4,51.8,35,29.99,10.0,NW,13.8,20.7,N/A,,Clear,310,2013-06-07 00:15:00
5:35 PM,82.4,51.8,35,29.99,10.0,NW,13.8,19.6,N/A,,Clear,320,2013-06-07 00:35:00
5:55 PM,80.6,51.8,37,29.99,9.0,NW,16.1,-,N/A,,Clear,320,2013-06-07 00:55:00
6:15 PM,80.6,51.8,37,29.99,10.0,WNW,17.3,21.9,N/A,,Clear,300,2013-06-07 01:15:00
6:35 PM,78.8,51.8,39,29.99,10.0,WNW,16.1,-,N/A,,Clear,300,2013-06-07 01:35:00
6:55 PM,77.0,51.8,41,30.00,10.0,NW,15.0,20.7,N/A,,Clear,310,2013-06-07 01:55:00
7:15 PM,77.0,51.8,41,30.01,10.0,NW,13.8,-,N/A,,Clear,310,2013-06-07 02:15:00
7:35 PM,75.2,51.8,44,30.01,10.0,NW,12.7,18.4,N/A,,Clear,310,2013-06-07 02:35:00
7:55 PM,75.2,53.6,47,30.01,10.0,West,10.4,-,N/A,,Clear,270,2013-06-07 02:55:00
8:15 PM,73.4,53.6,50,30.01,10.0,West,9.2,-,N/A,,Clear,270,2013-06-07 03:15:00
8:35 PM,73.4,53.6,50,30.02,10.0,WNW,9.2,-,N/A,,Clear,290,2013-06-07 03:35:00
8:55 PM,71.6,53.6,53,30.02,10.0,West,9.2,-,N/A,,Clear,280,2013-06-07 03:55:00
9:15 PM,71.6,51.8,50,30.03,10.0,WNW,8.1,-,N/A,,Clear,290,2013-06-07 04:15:00
9:35 PM,71.6,53.6,53,30.04,10.0,WNW,9.2,-,N/A,,Clear,300,2013-06-07 04:35:00
9:55 PM,68.0,53.6,60,30.04,10.0,WNW,4.6,-,N/A,,Clear,290,2013-06-07 04:55:00
10:15 PM,68.0,53.6,60,30.04,10.0,West,6.9,-,N/A,,Clear,270,2013-06-07 05:15:00
10:35 PM,66.2,51.8,60,30.04,10.0,West,6.9,-,N/A,,Clear,270,2013-06-07 05:35:00
10:55 PM,66.2,51.8,60,30.04,10.0,West,6.9,-,N/A,,Clear,280,2013-06-07 05:55:00
11:15 PM,66.2,51.8,60,30.04,10.0,NW,8.1,-,N/A,,Clear,310,2013-06-07 06:15:00
11:35 PM,66.2,53.6,64,30.04,10.0,West,5.8,-,N/A,,Clear,270,2013-06-07 06:35:00
11:55 PM,64.4,51.8,64,30.03,10.0,West,6.9,-,N/A,,Clear,270,2013-06-07 06:55:00